Вернуться в каталог

STARLINK-35393

АктивенСвязьVLEO
NORAD 65827·PAYLOAD·🇺🇸 United States

Запущен Sep 29, 2025 с Vandenberg Space Force Base

Loading…

Ближайшие Пролёты (ближайшие 24 часа)

TLE

СвежийSource: CelesTrak SupGP

Эпоха: Sep 14, 2026, 23:12 UTC

1 65827C 25221E   26257.96715278  .00046909  00000+0  13861-2 0  2572
2 65827  53.1588 285.2629 0001241  90.5364  57.1356 15.34363976    14

Отслеживайте STARLINK-35393 в реальном времени с AllMySat

Download on the App Store